Location: Star Hoppers Observatory
(42.7905°N, 83.6127°W)
Time: 06:45:00
(UTC-04:00)

Daily predictions for brighter satellites

Satellite Brightness Start Highest point End
(mag) Time Altitude Azimuth Time Altitude Azimuth Time Altitude Azimuth
Meteor 2-10 Rocket 3.9 21:27:20 10° N 21:33:10 66° ENE 21:38:50 10° SSE
ERBS 2.6 21:31:12 10° NW 21:34:39 61° NE 21:38:04 10° ESE
SPOT 5 3.9 21:30:00 10° SE 21:34:42 35° ENE 21:39:30 10° N
ALOS 3.3 21:30:34 10° S 21:35:05 49° W 21:39:37 10° NNW
Cosmos 1674 Rocket 4.2 21:32:40 10° N 21:36:52 38° ENE 21:41:00 10° SE
Cosmos 1606 4.2 21:34:51 10° NNE 21:37:57 22° ENE 21:41:02 10° SE
Cosmos 407 Rocket 4.3 21:34:56 10° N 21:39:50 38° ENE 21:44:45 10° SE
Cosmos 1892 2.6 21:42:14 10° S 21:46:02 76° E 21:49:54 10° NNE
H-2A R/B 4.4 21:45:18 10° SSW 21:48:39 32° W 21:52:02 10° NNW
ERS-1 Rocket 3.0 21:44:25 10° SSE 21:49:28 88° WSW 21:54:33 10° NNW
Cosmos 909 Rocket 4.3 21:44:45 10° SSW 21:51:12 76° ESE 21:59:00 10° NE
OPS 6432 4.5 21:48:03 10° SSW 21:51:26 49° ESE 21:54:27 10° NE
Cosmos 1190 Rocket 4.2 21:46:25 10° NNW 21:51:33 58° ENE 21:56:39 10° SE
PSLV R/B 3.8 21:52:36 10° W 21:55:55 46° SSW 21:58:46 14° ESE
Meteor 2-6 Rocket 4.4 21:50:39 10° N 21:56:35 65° ENE 22:02:25 10° SSE
Abrixas rocket 4.1 21:58:32 10° W 22:01:16 22° SW 22:03:58 10° SSE
Coronas F rocket 2.0 21:59:32 10° SSW 22:02:08 53° W 22:04:45 10° N
Cosmos 1975 Rocket 4.3 22:01:31 10° NNE 22:05:06 25° ENE 22:07:45 15° ESE
USA 234 4.1 22:01:17 10° ENE 22:06:28 25° SE 22:11:36 10° S
Cosmos 2154 Rocket 4.2 22:01:16 10° SSE 22:07:15 52° E 22:13:14 10° NNE
deb Chang Zheng 4 3.6 22:04:45 10° NNE 22:09:11 85° ESE 22:13:37 10° SSW
BREEZE-M DEB (TANK) 3.1 22:07:15 10° WSW 22:09:46 65° NNW 22:15:30 10° ENE
CZ-4B R/B 4.2 22:06:02 10° NE 22:10:26 31° E 22:13:59 14° SSE
SL-8 R/B 3.6 22:07:14 10° WSW 22:12:03 82° SSE 22:16:53 10° ENE
MetOp-B 4.3 22:07:40 12° SSE 22:12:34 61° ENE 22:17:51 10° N
Cosmos 2184 Rocket 4.3 22:08:10 10° SSW 22:14:17 72° W 22:20:29 10° N
COSMOS 2406 3.5 22:08:59 10° NNW 22:14:43 68° WSW 22:20:20 10° SSE
Cosmos 1908 Rocket 3.7 22:11:08 10° S 22:15:24 55° E 22:19:45 10° NNE
Cosmos 1733 Rocket 3.7 22:16:11 10° SSW 22:20:32 57° W 22:24:53 10° N
USA 245 3.6 22:19:18 21° SE 22:20:53 37° ENE 22:24:21 10° N
Cosmos 1378 Rocket 3.7 22:17:01 10° N 22:21:17 56° E 22:24:19 18° SSE
Cosmos 676 Rocket 4.1 22:16:20 10° NNW 22:21:31 64° ENE 22:25:21 18° SE
EO 1 Delta rocket 4.4 22:16:13 10° N 22:22:54 88° E 22:28:09 10° S
ATLAS 5 CENTAUR R/B 2.8 22:17:24 10° NW 22:23:19 59° WSW 22:28:52 14° SSE
ARGOS 3.6 22:19:51 17° SE 22:23:44 47° ENE 22:28:51 10° N
Cosmos 2056 Rocket 3.9 22:19:36 10° SSW 22:24:44 66° WNW 22:29:51 10° NNE
CZ-3C R/B 4.3 22:11:53 10° SW 22:25:26 17° SSW 22:30:32 11° SSE
Cosmos 1184 Rocket 3.6 22:24:38 24° SE 22:25:54 32° E 22:28:56 10° NNE
Cosmos 1174 3.4 22:24:58 10° NNW 22:28:16 54° NE 22:29:37 28° ESE
Cosmos 1954 Rocket 4.2 22:23:21 10° NNW 22:28:29 57° ENE 22:31:54 21° SE
MINOTAUR IV R/B 4.5 22:24:58 10° SSW 22:29:25 77° ESE 22:33:55 10° NNE
Cosmos 1862 3.3 22:28:45 12° S 22:32:24 71° E 22:36:30 10° NNE
Cosmos 2278 Rocket 2.5 22:28:24 10° S 22:33:47 47° ESE 22:39:12 10° NE
CENTAUR R/B 3.9 22:29:17 10° NW 22:36:43 45° WSW 22:44:20 11° S
Cosmos 1844 3.7 22:31:01 10° SSW 22:36:45 75° ESE 22:42:34 10° NNE
Cosmos 1833 Rocket 4.3 22:33:09 10° N 22:37:29 22° NE 22:40:56 13° E
SL-27 R/B 3.8 22:36:40 10° NW 22:40:04 37° WSW 22:42:44 15° SSW
Cosmos 1825 2.1 22:37:57 18° S 22:40:45 77° E 22:44:34 10° N
Cosmos 2084 3.5 22:37:51 13° S 22:41:02 41° ESE 22:44:39 10° NE
COSMOS 2487 2.7 22:39:54 10° N 22:43:29 56° ENE 22:44:48 34° SE
COS B Rocket 3.8 22:39:45 10° N 22:43:56 61° W 22:47:18 13° SSW
Cosmos 1844 Rocket 3.0 22:39:06 10° SSW 22:44:44 72° WNW 22:50:24 10° NNE
H-2A R/B 3.5 22:41:48 10° SSW 22:45:44 33° W 22:49:37 10° NNW
APEX 4.3 22:50:10 28° ESE 22:50:24 28° ESE 22:54:26 10° NE
CZ-4 SHROUD 4.3 22:50:15 21° SSW 22:51:55 40° W 22:54:52 10° NNW
Cosmos 2082 Rocket 3.2 22:47:18 10° N 22:52:29 34° NE 22:55:25 21° ESE
CZ-4C R/B 3.9 22:51:49 32° ESE 22:53:00 42° ENE 22:56:49 10° N
YAOGAN 6 3.2 22:52:00 22° SSW 22:53:57 50° W 22:57:24 10° NNW
Cosmos 1408 2.8 22:52:39 18° SSW 22:55:16 69° W 22:58:56 10° N
Meteor 1-27 Rocket 4.2 22:50:52 10° NNW 22:56:20 56° W 23:00:52 15° S
Cosmos 2218 Rocket 4.2 22:59:14 25° SSE 23:02:53 56° E 23:09:08 10° NNE
Cosmos 1023 Rocket 4.4 22:58:08 10° NNW 23:03:16 77° ENE 23:05:34 33° SSE
Cosmos 2297 4.1 23:02:58 29° SSE 23:05:16 43° ESE 23:10:39 10° NE
Okean 2 Rocket 3.0 23:02:50 24° S 23:05:31 87° W 23:09:57 10° N
Landsat 7 3.8 23:05:01 35° SSE 23:06:59 69° ENE 23:11:44 10° N
H-2A R/B 2.3 23:05:40 32° SE 23:08:07 61° ENE 23:13:24 10° N
Cosmos 1238 Rocket 3.6 23:06:16 10° NNW 23:09:12 37° W 23:10:41 24° SW
Cosmos 1242 Rocket 2.5 23:06:09 10° N 23:09:48 85° WSW 23:10:42 50° S
DELTA 2 DEB (DPAF) 4.1 23:09:30 39° SSE 23:11:05 74° ENE 23:15:34 10° N
Cosmos 1420 Rocket 3.9 23:08:59 21° S 23:12:31 75° ESE 23:17:45 10° NNE
BREEZE-M DEB 4.1 23:12:13 10° WSW 23:16:03 82° NNW 23:16:21 69° NE
Cosmos 1727 Rocket 4.1 23:13:11 10° N 23:19:16 58° E 23:21:45 35° SE
Terra 1.8 23:21:17 44° SE 23:22:44 70° ENE 23:27:29 10° N
Spot 4 4.2 23:21:25 40° ESE 23:22:48 53° ENE 23:27:31 10° N
SPOT 1/Viking Rocket 4.4 23:20:10 21° SSW 23:23:20 45° W 23:28:20 10° NNW
ASTEX 1 4.0 23:20:36 10° NNE 23:25:11 37° E 23:25:46 36° ESE
IGS 5A 3.5 23:25:17 54° SE 23:26:01 67° ENE 23:30:09 10° N
Cosmos 1959 Rocket 4.4 23:22:49 28° S 23:26:15 84° E 23:32:23 10° N
Timation 2 Rocket 3.9 23:26:43 10° NNW 23:32:43 76° WSW 23:35:01 39° S
Cosmos 614 Rocket 3.8 23:27:53 10° NNW 23:33:00 88° WSW 23:34:27 48° SSE
Okean 1 4.1 23:30:53 10° N 23:34:40 37° ENE 23:34:40 37° ENE
Cosmos 1140 Rocket 3.9 23:31:07 10° NNW 23:36:07 54° WSW 23:37:56 35° SSW
SAR-Lupe-2 3.7 23:36:53 59° ENE 23:36:53 59° ENE 23:40:15 10° N
DNEPR-1 R/B 3.8 23:34:47 10° NW 23:40:11 69° WSW 23:41:08 53° S
BREEZE-M DEB (TANK) 3.9 23:41:56 10° NW 23:43:59 25° N 23:47:46 10° ENE
Cosmos 2369 Rocket 4.4 23:46:18 11° E 23:46:18 11° E 23:46:42 10° ENE
Meteor 1-20 Rocket 4.2 23:43:42 48° SSE 23:45:03 63° E 23:50:33 10° NNE
CARTOSAT-1 3.7 23:44:45 53° SSW 23:45:31 64° W 23:49:49 10° NNW
SL-8 Rocket 4.4 23:41:38 19° SSW 23:46:07 59° W 23:52:18 10° N
Cosmos 1339 Rocket 4.4 23:41:59 10° N 23:48:09 80° E 23:50:09 46° SSE
Meteor 1-25 Rocket 4.2 23:47:59 44° S 23:49:58 82° E 23:55:50 10° NNE
USA 234 3.2 23:43:25 10° NE 23:49:59 90° SE 23:56:31 10° SW
DMSP B5D2-2 4.2 23:49:27 10° N 23:54:40 74° WNW 23:56:39 39° SSW
